カタログに戻る

STARLINK-33791

運用中通信VLEO
NORAD 63594·PAYLOAD·🇺🇸 United States

打ち上げ Apr 14, 2025 から Cape Canaveral Space Force Station

Loading…

次のパス (今後24時間)

TLE

最新Source: CelesTrak SupGP

元期: Sep 15, 2026, 03:15 UTC

1 63594C 25076AB  26258.13590278  .00046954  00000+0  17004-2 0  2584
2 63594  43.0014 331.9999 0001427 263.6735  16.1467 15.27559836    17

AllMySatでSTARLINK-33791をリアルタイム追跡

Download on the App Store